Weather History for PATK - July, 2013

Change the Weather History Date:

Saturday, July 20, 2013

  Actual Average Record
Temperature  
Mean Temperature 62 °F -  
Max Temperature 72 °F 67 °F 87 °F (1952)
Min Temperature 53 °F 50 °F 38 °F (1964)
Degree Days  
Heating Degree Days 2    
Growing Degree Days 12 (Base 50)    
Moisture  
Dew Point 51 °F    
Average Humidity 70    
Maximum Humidity 93    
Minimum Humidity 37    
Precipitation  
Precipitation 0.03 in - - ()
Sea Level Pressure  
Sea Level Pressure 30.10 in    
Wind  
Wind Speed 1 mph (North)    
Max Wind Speed 8 mph    
Max Gust Speed -    
Visibility 10 miles    
Events      
Averages and records for this station are not official NWS values.
T = Trace of Precipitation, MM = Missing Value Source: NWS Daily Summary

Daily Weather History Graph

Daily Weather History Graph

Search for Another Location

Airport or City:

Trip Planner

Search our weather history database for the weather conditions in past years. The results will help you decide how hot, cold, wet, or windy it might be!

Date:

Astronomy

Jul. 20, 2013 Rise Set
Actual Time 4:52 AM AKDT 11:18 PM AKDT
Civil Twilight 3:14 AM AKDT 12:53 AM AKDT
Nautical Twilight Sun does not set Sun does not set
Astronomical Twilight Sun does not set Sun does not set
Moon 9:21 PM AKDT (7/20) 2:48 AM AKDT (7/20)
Length of Visible Light 21h 38m
Length of Day
18h 25m
Waxing Gibbous, 94% of the Moon is Illuminated
Jul 20
Waxing Gibbous
Jul 22
Full
Jul 29
Last Quarter
Aug 6
New
Aug 14
First Quarter

Hourly Weather History & Observations

Time (AKDT) Temp. Dew Point Humidity Pressure Visibility Wind Dir Wind Speed Gust Speed Precip Events Conditions
12:53 AM 57.9 °F 54.0 °F 87% 30.11 in 10.0 mi Calm Calm - N/A   Clear
1:53 AM 54.0 °F 52.0 °F 93% 30.11 in 10.0 mi Calm Calm - N/A   Clear
2:53 AM 54.0 °F 52.0 °F 93% 30.11 in 10.0 mi Calm Calm - N/A   Clear
3:53 AM 54.0 °F 52.0 °F 93% 30.12 in 10.0 mi Calm Calm - N/A   Clear
4:53 AM 54.0 °F 52.0 °F 93% 30.10 in 10.0 mi Calm Calm - N/A   Overcast
5:53 AM 55.0 °F 52.0 °F 89% 30.10 in 10.0 mi Calm Calm - N/A   Clear
6:53 AM 54.0 °F 52.0 °F 93% 30.11 in 10.0 mi Calm Calm - N/A   Partly Cloudy
7:53 AM 55.9 °F 53.1 °F 90% 30.12 in 10.0 mi Calm Calm - N/A   Clear
8:53 AM 59.0 °F 53.1 °F 81% 30.11 in 10.0 mi Calm Calm - N/A   Mostly Cloudy
9:04 AM 57.2 °F 53.6 °F 88% 30.10 in 10.0 mi Calm Calm - N/A   Scattered Clouds
9:53 AM 60.1 °F 53.1 °F 78% 30.11 in 10.0 mi Variable 3.5 mph - N/A   Overcast
10:53 AM 61.0 °F 53.1 °F 75% 30.12 in 10.0 mi NE 5.8 mph - N/A   Overcast
11:53 AM 57.9 °F 52.0 °F 81% 30.12 in 10.0 mi NE 4.6 mph - 0.03 in   Overcast
12:53 PM 62.1 °F 52.0 °F 70% 30.12 in 10.0 mi Calm Calm - N/A   Overcast
1:53 PM 64.9 °F 51.1 °F 61% 30.12 in 10.0 mi Calm Calm - N/A   Overcast
2:53 PM 69.1 °F 46.9 °F 45% 30.11 in 10.0 mi Variable 3.5 mph - N/A   Clear
3:53 PM 70.0 °F 45.0 °F 41% 30.10 in 10.0 mi NNE 8.1 mph - N/A   Mostly Cloudy
4:53 PM 70.0 °F 44.1 °F 39% 30.09 in 10.0 mi Variable 3.5 mph - N/A   Scattered Clouds
5:53 PM 71.1 °F 44.1 °F 38% 30.07 in 10.0 mi West 4.6 mph - N/A   Scattered Clouds
6:53 PM 71.1 °F 44.1 °F 38% 30.07 in 10.0 mi Calm Calm - N/A   Mostly Cloudy
7:53 PM 72.0 °F 44.1 °F 37% 30.06 in 10.0 mi NW 3.5 mph - N/A   Clear
8:53 PM 72.0 °F 46.0 °F 40% 30.05 in 10.0 mi Calm Calm - N/A   Clear
9:53 PM 66.9 °F 51.1 °F 57% 30.05 in 10.0 mi Calm Calm - N/A   Clear
10:53 PM 62.1 °F 53.1 °F 72% 30.05 in 10.0 mi Calm Calm - N/A   Clear
11:53 PM 57.9 °F 53.1 °F 84% 30.06 in 10.0 mi Calm Calm - N/A   Scattered Clouds